Location: Lancaster
(34.6980°N, 118.1360°W)
Time: 10:32:00
(UTC-08:00)

Amateur Radio Satellites - All Passes

Search period start: 20 January 2018 10:02
Search period end: 21 January 2018 10:02
Location: Lancaster, 34.6980°N, 118.1360°W

Satellite Date Start Highest point End Downlink Frequencies (MHz)
Time Altitude Azimuth
UNISAT 6 20 Jan 10:05:33 10:07:58 14° 268° (W) 10:10:24 437.425
DELFI C3 20 Jan 10:05:56 10:09:15 27° 288° (WNW) 10:12:35 145.870
ESTCUBE 1 20 Jan 10:08:18 10:08:34 10° 91° (E) 10:08:50 437.505/2401.250
BEESAT 2 20 Jan 10:10:05 10:14:05 82° 118° (ESE) 10:18:08 435.950
PCSat 20 Jan 10:23:14 10:28:06 34° 303° (WNW) 10:33:01 145.827
O/OREOS (USA 219) 20 Jan 10:24:34 10:29:03 80° 70° (ENE) 10:33:32 437.305
PRISM 20 Jan 10:26:52 10:30:33 33° 262° (W) 10:34:15 437.425
POLYITAN 1 20 Jan 10:33:15 10:36:55 29° 71° (ENE) 10:40:37 437.675
YUBILEINY 20 Jan 10:42:11 10:50:48 67° 268° (W) 10:59:21 435.215
JUGNU 20 Jan 10:45:23 10:49:01 17° 174° (S) 10:52:39 437.505
NANOSAT C BR1 20 Jan 10:49:09 10:53:04 40° 73° (ENE) 10:57:02 145.865
LO-87 20 Jan 11:00:06 11:03:42 64° 100° (E) 11:07:18 145.935 - 145.965
QB50P2 20 Jan 11:02:16 11:06:29 78° 76° (ENE) 11:10:44 145.880/145.840
AIST 2D 20 Jan 11:18:28 11:20:36 15° 266° (W) 11:22:44 435.315
AO-85 20 Jan 11:18:58 11:22:43 51° 115° (ESE) 11:26:43 145.980
Oscar 19 20 Jan 11:25:52 11:28:40 15° 64° (ENE) 11:31:28 437.125/150
DUCHIFAT 1 20 Jan 11:32:55 11:37:04 68° 258° (WSW) 11:41:17 145.980
EO-79 20 Jan 11:33:35 11:37:38 47° 260° (W) 11:41:45 145.935-145.965
ESTCUBE 1 20 Jan 11:41:16 11:45:40 58° 285° (WNW) 11:50:03 437.505/2401.250
VELOX 1 20 Jan 11:44:30 11:47:06 15° 94° (E) 11:49:42 145.980
SPROUT 20 Jan 11:44:41 11:48:30 30° 97° (E) 11:52:17 437.525
AO-91 20 Jan 11:57:30 12:00:02 20° 71° (ENE) 12:02:36 145.960
RS-15 20 Jan 12:03:34 12:09:30 14° 345° (NNW) 12:15:21 29.354- 29.394
POLYITAN 1 20 Jan 12:09:43 12:12:40 18° 265° (W) 12:15:39 437.675
NANOSAT C BR1 20 Jan 12:26:49 12:28:54 13° 267° (W) 12:31:00 145.865
AO-7 20 Jan 12:28:52 12:32:36 14° 51° (NE) 12:36:20 .
JUGNU 20 Jan 12:33:30 12:37:18 18° 184° (S) 12:41:07 437.505
BUGSAT 1 20 Jan 12:36:28 12:40:26 56° 260° (W) 12:44:29 437.445
Gurwin Techsat 1B 20 Jan 12:44:11 12:49:26 67° 74° (ENE) 12:54:42 435.225
SRMSAT 20 Jan 12:53:27 12:56:35 15° 169° (SSE) 12:59:43 437.500
AO-85 20 Jan 13:01:35 13:03:30 13° 314° (NW) 13:05:27 145.980
Oscar 19 20 Jan 13:02:18 13:07:25 60° 259° (W) 13:12:34 437.125/150
SO-50 20 Jan 13:08:05 13:10:53 15° 48° (NE) 13:13:42 436.795
VELOX 1 20 Jan 13:19:34 13:23:38 38° 287° (WNW) 13:27:42 145.980
SPROUT 20 Jan 13:21:06 13:24:07 19° 291° (WNW) 13:27:08 437.525
UKube-1 20 Jan 13:26:42 13:30:09 23° 96° (E) 13:33:35 .
AO-91 20 Jan 13:34:32 13:36:30 15° 265° (W) 13:38:27 145.960
DX 1 20 Jan 13:36:55 13:41:11 55° 101° (E) 13:45:26 434.975-435.025
ITAMSAT 1 20 Jan 14:08:27 14:12:45 27° 68° (ENE) 14:17:02 435.822/435.867
AO-7 20 Jan 14:15:36 14:23:53 72° 70° (ENE) 14:32:13 .
50 SAT 20 Jan 14:16:02 14:18:52 32° 286° (WNW) 14:21:41 437.505
RS-15 20 Jan 14:22:17 14:29:24 17° 23° (NNE) 14:36:18 29.354- 29.394
JUGNU 20 Jan 14:23:25 14:25:33 12° 194° (SSW) 14:27:42 437.505
Gurwin Techsat 1B 20 Jan 14:27:41 14:29:46 12° 268° (W) 14:31:51 435.225
ITUPSAT 1 20 Jan 14:34:40 14:38:16 21° 95° (E) 14:41:51 437.325
SRMSAT 20 Jan 14:40:58 14:45:02 19° 179° (S) 14:49:07 437.500
M-CUBED/EXP-1 PRIME 20 Jan 14:43:11 14:45:52 16° 64° (ENE) 14:48:26 437.505
SO-50 20 Jan 14:47:03 14:51:43 61° 244° (WSW) 14:56:26 436.795
UKube-1 20 Jan 15:02:33 15:06:02 25° 290° (WNW) 15:09:32 .
MOZHAYETS 4 20 Jan 15:08:32 15:13:11 83° 281° (W) 15:17:46
CUBESAT XI-V 20 Jan 15:11:17 15:14:55 23° 95° (E) 15:18:31 437.345
BEESAT 20 Jan 15:13:42 15:18:26 58° 101° (E) 15:23:08 436.000
DX 1 20 Jan 15:15:28 15:16:50 11° 295° (WNW) 15:18:11 434.975-435.025
NO-84 20 Jan 15:22:36 15:24:26 14° 125° (SE) 15:26:12 435.350 FM
ITAMSAT 1 20 Jan 15:47:33 15:52:03 30° 263° (W) 15:56:34 435.822/435.867
DOVE 4 20 Jan 15:59:31 16:03:53 89° 70° (ENE) 16:08:06 437.250
AO-7 20 Jan 16:11:18 16:17:11 21° 265° (W) 16:23:07 .
ITUPSAT 1 20 Jan 16:11:46 16:16:05 34° 289° (WNW) 16:20:24 437.325
XW-2D 20 Jan 16:15:19 16:17:26 14° 69° (ENE) 16:19:34 145.860 - 145.880
M-CUBED/EXP-1 PRIME 20 Jan 16:15:45 16:19:55 40° 256° (WSW) 16:23:54 437.505
SRMSAT 20 Jan 16:29:59 16:33:30 16° 189° (S) 16:37:02 437.500
XW-2B 20 Jan 16:31:56 16:34:55 22° 71° (ENE) 16:37:55 145.730 - 145.750
RS-15 20 Jan 16:34:10 16:45:32 53° 53° (NE) 16:56:17 29.354- 29.394
HO-68 20 Jan 16:35:16 16:40:02 19° 60° (ENE) 16:44:47 435.675
KKS-1 20 Jan 16:40:18 16:44:09 28° 97° (E) 16:47:59 437.445
CUBESAT XI-V 20 Jan 16:48:17 16:52:13 28° 289° (WNW) 16:56:07 437.345
BEESAT 20 Jan 16:53:27 16:55:39 13° 296° (WNW) 16:57:51 436.000
STARS 20 Jan 16:57:59 17:00:45 16° 94° (E) 17:03:31 437.465
NO-84 20 Jan 16:58:34 17:01:24 30° 317° (NW) 17:04:05 435.350 FM
LilacSat-2 20 Jan 16:58:44 17:02:31 57° 76° (ENE) 17:06:20 437.200
XW-2C 20 Jan 17:01:21 17:05:07 56° 76° (ENE) 17:08:53 145.795 - 145.815
CUTE-I 20 Jan 17:17:35 17:22:51 70° 75° (ENE) 17:28:09 437.470
SEEDS 20 Jan 17:18:15 17:20:12 13° 67° (ENE) 17:22:09 437.485
CUTE 1.7 + AOD 2 20 Jan 17:28:17 17:32:00 30° 72° (ENE) 17:35:44 437.475
PCSat 20 Jan 17:32:46 17:35:06 13° 47° (NE) 17:37:26 145.827
KAITUO 1B 20 Jan 17:36:42 17:40:27 69° 259° (W) 17:44:13 145.475/437.950
CUBEBUG 2 20 Jan 17:37:52 17:41:23 25° 70° (ENE) 17:45:00 437.445
XW-2F 20 Jan 17:38:04 17:41:45 47° 261° (W) 17:45:27 145.980 - 146.000
BEESAT 3 20 Jan 17:44:05 17:46:57 19° 52° (NE) 17:49:46 437.485
UWE-3 20 Jan 17:44:40 17:47:23 16° 67° (ENE) 17:50:10 435.000/436.395/437.385
XW-2D 20 Jan 17:47:52 17:51:17 31° 262° (W) 17:54:43 145.860 - 145.880
NUDT-PHONESAT 20 Jan 17:48:17 17:51:54 50° 260° (W) 17:55:34 437.300
STRAND 1 20 Jan 18:03:42 18:05:25 12° 92° (E) 18:07:09 437.568
XW-2B 20 Jan 18:06:08 18:08:58 20° 265° (W) 18:11:49 145.730 - 145.750
ZACube-1 20 Jan 18:09:01 18:11:37 15° 67° (ENE) 18:14:15 437.345
XW-2A 20 Jan 18:13:50 18:15:56 16° 70° (ENE) 18:18:03 145.665 - 145.685
AO-73 20 Jan 18:15:48 18:18:31 16° 67° (ENE) 18:21:15 145.935
KKS-1 20 Jan 18:17:06 18:20:30 22° 291° (WNW) 18:23:55 437.445
HO-68 20 Jan 18:19:52 18:27:00 73° 256° (WSW) 18:34:10 435.675
BEESAT 2 20 Jan 18:31:37 18:34:17 17° 51° (NE) 18:36:55 435.950
STARS 20 Jan 18:33:06 18:37:09 37° 288° (WNW) 18:41:12 437.465
AAUSAT CUBESAT 2 20 Jan 18:33:48 18:37:41 40° 74° (ENE) 18:41:34 437.432
RS-15 20 Jan 18:47:14 18:57:29 40° 254° (WSW) 19:07:23 29.354- 29.394
Oscar 11 20 Jan 18:48:35 18:51:58 22° 70° (ENE) 18:55:21 .
SEEDS 20 Jan 18:51:26 18:55:27 44° 261° (W) 18:59:29 437.485
CUTE-I 20 Jan 19:01:37 19:03:19 11° 269° (W) 19:05:02 437.470
CUTE 1.7 + AOD 2 20 Jan 19:04:50 19:07:49 18° 266° (W) 19:10:48 437.475
PCSat 20 Jan 19:13:46 19:19:13 88° 243° (WSW) 19:24:37 145.827
CUBEBUG 2 20 Jan 19:14:22 19:17:53 24° 265° (W) 19:21:30 437.445
UWE-3 20 Jan 19:19:21 19:23:26 39° 262° (W) 19:27:40 435.000/436.395/437.385
BEESAT 3 20 Jan 19:21:06 19:24:28 28° 247° (WSW) 19:27:45 437.485
nSIGHT-1 20 Jan 19:21:15 19:24:13 40° 133° (SE) 19:27:13 .
ISS 20 Jan 19:33:45 19:36:45 35° 132° (SE) 19:39:46 437.550
STRAND 1 20 Jan 19:39:52 19:44:58 67° 285° (WNW) 19:50:04 437.568
ZACube-1 20 Jan 19:43:18 19:47:28 41° 262° (W) 19:51:45 437.345
XW-2A 20 Jan 19:45:42 19:48:24 22° 264° (W) 19:51:07 145.665 - 145.685
AO-73 20 Jan 19:50:12 19:54:20 40° 262° (W) 19:58:35 145.935
AO-85 20 Jan 19:52:44 19:56:43 23° 52° (NE) 20:00:52 145.980
Max Valier Satellite 20 Jan 19:55:42 19:57:14 12° 68° (ENE) 19:58:46 145.860
BEESAT 2 20 Jan 20:08:27 20:12:06 35° 247° (WSW) 20:15:41 435.950
AAUSAT CUBESAT 2 20 Jan 20:11:27 20:13:16 13° 267° (W) 20:15:04 437.432
EO-88 20 Jan 20:14:32 20:16:18 13° 69° (ENE) 20:18:04 145.990 - 145.960
FO-29 20 Jan 20:18:26 20:23:37 74° 285° (WNW) 20:28:55 435.910
UNISAT 6 20 Jan 20:23:45 20:25:40 12° 92° (E) 20:27:36 437.425
Oscar 11 20 Jan 20:24:17 20:27:56 26° 264° (W) 20:31:35 .
DELFI C3 20 Jan 20:46:34 20:50:29 84° 258° (WSW) 20:54:23 145.870
nSIGHT-1 20 Jan 20:58:17 21:00:31 18° 328° (NNW) 21:02:45 .
ISS 20 Jan 21:10:47 21:13:18 20° 328° (NNW) 21:15:49 437.550
Max Valier Satellite 20 Jan 21:27:14 21:30:40 35° 262° (W) 21:34:07 145.860
AO-85 20 Jan 21:32:28 21:37:18 44° 246° (WSW) 21:42:19 145.980
LO-87 20 Jan 21:33:44 21:35:45 15° 69° (ENE) 21:37:46 145.935 - 145.965
TIGRISAT 20 Jan 21:42:39 21:47:22 89° 293° (WNW) 21:52:03 435.000
YUBILEINY 20 Jan 21:43:28 21:50:42 29° 84° (E) 21:57:54 435.215
EO-88 20 Jan 21:46:20 21:49:36 30° 262° (W) 21:52:52 145.990 - 145.960
UNISAT 6 20 Jan 21:58:02 22:02:38 54° 286° (WNW) 22:07:11 437.425
PRISM 20 Jan 22:10:54 22:14:43 38° 99° (E) 22:18:31 437.425
SPROUT 20 Jan 22:35:33 22:38:03 16° 68° (ENE) 22:40:34 437.525
ESTCUBE 1 20 Jan 22:36:43 22:41:15 81° 76° (ENE) 22:45:47 437.505/2401.250
AIST 2D 20 Jan 22:44:53 22:48:13 44° 99° (E) 22:51:31 435.315
QB50P2 20 Jan 22:51:33 22:54:17 16° 94° (E) 22:57:00 145.880/145.840
O/OREOS (USA 219) 20 Jan 22:56:30 22:58:48 14° 99° (E) 23:01:06 437.305
LO-87 20 Jan 23:05:52 23:08:52 26° 263° (W) 23:11:54 145.935 - 145.965
DUCHIFAT 1 20 Jan 23:20:36 23:24:02 24° 96° (E) 23:27:27 145.980
EO-79 20 Jan 23:21:29 23:25:23 33° 98° (E) 23:29:14 145.935-145.965
NO-84 20 Jan 23:33:33 23:35:45 19° 41° (NE) 23:38:01 435.350 FM
YUBILEINY 20 Jan 23:38:27 23:46:58 52° 281° (W) 23:55:31 435.215
PRISM 20 Jan 23:47:29 23:49:37 14° 293° (WNW) 23:51:44 437.425
POLYITAN 1 20 Jan 23:56:10 00:00:28 89° 313° (NW) 00:04:45 437.675
SPROUT 21 Jan 00:09:40 00:13:34 37° 262° (W) 00:17:32 437.525
NANOSAT C BR1 21 Jan 00:11:48 00:16:02 66° 285° (WNW) 00:20:15 145.865
VELOX 1 21 Jan 00:12:37 00:16:58 69° 258° (WSW) 00:21:21 145.980
UKube-1 21 Jan 00:19:02 00:21:08 13° 66° (ENE) 00:23:13 .
BUGSAT 1 21 Jan 00:21:40 00:25:13 25° 97° (E) 00:28:45 437.445
QB50P2 21 Jan 00:26:15 00:30:06 34° 288° (WNW) 00:33:57 145.880/145.840
DX 1 21 Jan 00:29:08 00:32:54 30° 71° (ENE) 00:36:42 434.975-435.025
O/OREOS (USA 219) 21 Jan 00:33:28 00:37:46 43° 293° (WNW) 00:42:04 437.305
50 SAT 21 Jan 00:36:57 00:39:33 25° 73° (ENE) 00:42:10 437.505
DUCHIFAT 1 21 Jan 00:56:10 00:59:33 23° 290° (WNW) 01:02:55 145.980
EO-79 21 Jan 00:58:01 01:00:49 17° 292° (WNW) 01:03:38 145.935-145.965
Gurwin Techsat 1B 21 Jan 01:04:10 01:09:00 34° 98° (E) 01:13:47 435.225
NO-84 21 Jan 01:10:30 01:12:49 21° 233° (SW) 01:15:15 435.350 FM
Oscar 19 21 Jan 01:17:17 01:22:25 64° 102° (ESE) 01:27:30 437.125/150
AO-91 21 Jan 01:23:52 01:28:28 85° 283° (WNW) 01:33:32 145.960
ITUPSAT 1 21 Jan 01:38:37 01:41:43 17° 66° (ENE) 01:44:49 437.325
nSIGHT-1 21 Jan 01:51:20 01:53:02 13° 29° (NNE) 01:54:42 .
UKube-1 21 Jan 01:52:36 01:56:42 44° 260° (W) 02:00:50 .
BUGSAT 1 21 Jan 01:57:07 02:00:23 22° 290° (WNW) 02:03:39 437.445
ISS 21 Jan 02:05:06 02:06:47 13° 28° (NNE) 02:08:27 437.550
DX 1 21 Jan 02:06:01 02:09:05 19° 265° (W) 02:12:09 434.975-435.025
MOZHAYETS 4 21 Jan 02:06:29 02:11:03 61° 75° (ENE) 02:15:38
CUBESAT XI-V 21 Jan 02:11:52 02:14:45 16° 67° (ENE) 02:17:38 437.345
BEESAT 21 Jan 02:16:32 02:21:03 45° 72° (ENE) 02:25:35 436.000
AO-7 21 Jan 02:22:02 02:28:59 29° 97° (E) 02:35:53 .
ITAMSAT 1 21 Jan 02:26:25 02:28:19 12° 92° (E) 02:30:12 435.822/435.867
Gurwin Techsat 1B 21 Jan 02:44:27 02:48:43 25° 292° (WNW) 02:52:59 435.225
Oscar 19 21 Jan 02:58:40 03:01:07 14° 297° (WNW) 03:03:35 437.125/150
ITUPSAT 1 21 Jan 03:14:39 03:19:09 42° 261° (W) 03:23:42 437.325
FALCONSAT 3 21 Jan 03:17:10 03:20:35 38° 158° (SSE) 03:24:01 435.103
nSIGHT-1 21 Jan 03:26:20 03:29:29 67° 225° (SW) 03:32:38 .
KKS-1 21 Jan 03:35:43 03:38:40 18° 68° (ENE) 03:41:39 437.445
ISS 21 Jan 03:40:19 03:43:36 76° 224° (SW) 03:46:51 437.550
CUBESAT XI-V 21 Jan 03:47:15 03:51:43 43° 261° (W) 03:56:12 437.345
MOZHAYETS 4 21 Jan 03:47:49 03:48:31 10° 269° (W) 03:49:13
BEESAT 21 Jan 03:56:11 03:58:59 15° 266° (W) 04:01:47 436.000
M-CUBED/EXP-1 PRIME 21 Jan 03:58:56 04:00:18 12° 99° (E) 04:01:38 437.505
DOVE 4 21 Jan 04:01:09 04:05:02 29° 98° (E) 04:09:05 437.250
ITAMSAT 1 21 Jan 04:02:59 04:08:09 66° 285° (WNW) 04:13:18 435.822/435.867
AO-7 21 Jan 04:13:54 04:21:59 56° 293° (WNW) 04:30:02 .
FALCONSAT 3 21 Jan 04:55:51 04:59:32 86° 352° (N) 05:03:13 435.103
SO-50 21 Jan 04:57:45 05:02:11 83° 299° (WNW) 05:06:42 436.795
KKS-1 21 Jan 05:10:55 05:14:56 34° 262° (W) 05:18:58 437.445
KAITUO 1B 21 Jan 05:12:22 05:14:15 13° 94° (E) 05:16:08 145.475/437.950
XW-2F 21 Jan 05:13:51 05:16:37 20° 95° (E) 05:19:22 145.980 - 146.000
STRAND 1 21 Jan 05:16:31 05:18:40 13° 63° (ENE) 05:20:50 437.568
NUDT-PHONESAT 21 Jan 05:22:16 05:24:44 17° 95° (E) 05:27:11 437.300
XW-2D 21 Jan 05:23:20 05:26:40 30° 97° (E) 05:29:59 145.860 - 145.880
STARS 21 Jan 05:25:33 05:29:50 65° 258° (WSW) 05:34:12 437.465
M-CUBED/EXP-1 PRIME 21 Jan 05:32:00 05:34:45 24° 293° (WNW) 05:37:26 437.505
CUTE-I 21 Jan 05:38:17 05:43:12 37° 98° (E) 05:48:05 437.470
DOVE 4 21 Jan 05:39:12 05:42:32 21° 289° (WNW) 05:45:58 437.250
XW-2B 21 Jan 05:40:42 05:44:21 50° 99° (E) 05:47:58 145.730 - 145.750
HO-68 21 Jan 05:52:08 05:57:59 27° 96° (E) 06:03:49 435.675
LilacSat-2 21 Jan 06:09:15 06:12:57 54° 284° (WNW) 06:16:37 437.200
XW-2C 21 Jan 06:11:02 06:14:43 56° 284° (WNW) 06:18:22 145.795 - 145.815
FO-29 21 Jan 06:26:25 06:32:29 34° 70° (ENE) 06:37:56 435.910
FALCONSAT 3 21 Jan 06:34:59 06:38:40 87° 8° (N) 06:42:21 435.103
SEEDS 21 Jan 06:38:23 06:42:14 36° 98° (E) 06:46:03 437.485
KAITUO 1B 21 Jan 06:45:02 06:48:14 29° 287° (WNW) 06:51:26 145.475/437.950
XW-2F 21 Jan 06:47:46 06:50:35 21° 289° (WNW) 06:53:23 145.980 - 146.000
CUTE 1.7 + AOD 2 21 Jan 06:51:25 06:55:38 83° 282° (WNW) 06:59:49 437.475
RS-15 21 Jan 06:51:40 07:03:09 48° 108° (ESE) 07:14:33 29.354- 29.394
STRAND 1 21 Jan 06:52:11 06:57:14 67° 259° (W) 07:02:18 437.568
NUDT-PHONESAT 21 Jan 06:55:35 06:58:29 23° 288° (WNW) 07:01:23 437.300
XW-2D 21 Jan 06:58:32 07:00:31 14° 291° (WNW) 07:02:31 145.860 - 145.880
CUBEBUG 2 21 Jan 07:07:09 07:11:56 90° 26° (NNE) 07:16:39 437.445
XW-2A 21 Jan 07:09:56 07:12:42 24° 97° (E) 07:15:26 145.665 - 145.685
UWE-3 21 Jan 07:11:49 07:16:24 54° 99° (E) 07:20:54 435.000/436.395/437.385
CUTE-I 21 Jan 07:18:48 07:22:59 24° 293° (WNW) 07:27:09 437.470
ZACube-1 21 Jan 07:34:42 07:39:07 48° 99° (E) 07:43:24 437.345
HO-68 21 Jan 07:39:03 07:45:52 50° 291° (WNW) 07:52:42 435.675
AO-73 21 Jan 07:41:13 07:45:37 50° 99° (E) 07:49:54 145.935
AAUSAT CUBESAT 2 21 Jan 07:54:00 07:58:04 63° 284° (WNW) 08:02:06 437.432
PCSat 21 Jan 08:10:24 08:14:08 19° 105° (ESE) 08:17:54 145.827
FO-29 21 Jan 08:11:02 08:17:24 36° 261° (W) 08:23:09 435.910
Oscar 11 21 Jan 08:13:56 08:18:15 73° 101° (ESE) 08:22:32 .
FALCONSAT 3 21 Jan 08:14:12 08:17:36 36° 202° (SSW) 08:20:59 435.103
SEEDS 21 Jan 08:15:12 08:17:33 15° 292° (WNW) 08:19:54 437.485
DELFI C3 21 Jan 08:27:45 08:30:02 15° 94° (E) 08:32:19 145.870
TIGRISAT 21 Jan 08:37:36 08:41:49 49° 74° (ENE) 08:46:11 435.000
XW-2A 21 Jan 08:43:26 08:45:06 13° 291° (WNW) 08:46:48 145.665 - 145.685
JUGNU 21 Jan 08:44:04 08:45:36 11° 165° (SSE) 08:47:08 437.505
UWE-3 21 Jan 08:50:09 08:52:18 13° 294° (WNW) 08:54:27 435.000/436.395/437.385
UNISAT 6 21 Jan 08:52:51 08:57:14 85° 77° (ENE) 09:01:46 437.425
PRISM 21 Jan 08:57:32 09:00:13 17° 69° (ENE) 09:02:54 437.425
Max Valier Satellite 21 Jan 09:00:24 09:03:26 24° 96° (E) 09:06:25 145.860
RS-15 21 Jan 09:03:46 09:15:34 50° 308° (NW) 09:27:17 29.354- 29.394
BEESAT 3 21 Jan 09:06:02 09:10:00 81° 300° (WNW) 09:14:01 437.485
O/OREOS (USA 219) 21 Jan 09:08:37 09:11:28 16° 60° (ENE) 09:14:18 437.305
ZACube-1 21 Jan 09:12:36 09:14:53 14° 294° (WNW) 09:17:09 437.345
EO-88 21 Jan 09:17:57 09:20:58 25° 96° (E) 09:23:58 145.990 - 145.960
AO-73 21 Jan 09:19:11 09:21:19 13° 294° (WNW) 09:23:26 145.935
